Location: Abundant Grace Fellowship
(35.0349°N, 90.0924°W)
Time: 22:22:19
(UTC+00:00)

Okean 1-7 - Pass Details

Date: 18 January 2026
Orbit: 566 x 588 km, 82.5° (Epoch: 10 February)

Event Time Altitude Azimuth Distance (km) Brightness Sun altitude
Rises 01:12:42 0° 194° (SSW) 2,758 6.7 -24.0°
Reaches altitude 10° 01:14:54 10° 198° (SSW) 1,862 5.8 -24.4°
Maximum altitude 01:18:57 58° 278° (W) 661 3.4 -25.3°
Enters shadow 01:19:35 51° 318° (NW) 717 3.5 -25.4°
